Powrót do katalogu

STARLINK-32352

AktywnyŁącznośćVLEO
NORAD 61847·PAYLOAD·🇺🇸 United States

Wystrzelony Nov 7, 2024 z Cape Canaveral Space Force Station

Loading…

Następne Przeloty (najbliższe 24 godziny)

TLE

ŚwieżeSource: CelesTrak SupGP

Epoka: Sep 15, 2026, 02:15 UTC

1 61847C 24202C   26258.09423611 -.00032382  00000+0 -11728-2 0  2583
2 61847  43.0006 237.0359 0001361 267.4559 149.2452 15.27596134    10

Śledź STARLINK-32352 w czasie rzeczywistym z AllMySat

Download on the App Store